TimeCST,TemperatureF,Dew PointF,Humidity,Sea Level PressureIn,VisibilityMPH,Wind Direction,Wind SpeedMPH,Gust SpeedMPH,PrecipitationIn,Events,Conditions,WindDirDegrees,DateUTC
12:03 AM,10.4,6.8,85,30.21,0.8,Calm,Calm,-,N/A,,Mist,0,2012-11-14 06:03:00
12:07 AM,8.6,6.8,92,30.20,0.5,Calm,Calm,-,N/A,Fog,Light Freezing Fog,0,2012-11-14 06:07:00
12:14 AM,8.6,6.8,92,30.21,0.2,Calm,Calm,-,N/A,Fog,Light Freezing Fog,0,2012-11-14 06:14:00
12:20 AM,8.6,6.8,92,30.20,0.2,Calm,Calm,-,N/A,Fog,Light Freezing Fog,0,2012-11-14 06:20:00
12:35 AM,8.6,6.8,92,30.20,0.2,Calm,Calm,-,N/A,Fog,Light Freezing Fog,0,2012-11-14 06:35:00
12:38 AM,8.6,6.8,92,30.20,0.2,Calm,Calm,-,N/A,Fog,Light Freezing Fog,0,2012-11-14 06:38:00
12:46 AM,8.6,6.8,92,30.21,0.2,Calm,Calm,-,N/A,Fog,Light Freezing Fog,0,2012-11-14 06:46:00
12:48 AM,8.6,5.0,85,30.21,0.2,Calm,Calm,-,N/A,Fog,Light Freezing Fog,0,2012-11-14 06:48:00
12:55 AM,8.4,5.5,88,30.20,0.2,Calm,Calm,-,N/A,Fog,Light Freezing Fog,0,2012-11-14 06:55:00
12:58 AM,8.6,5.0,85,30.20,0.2,Calm,Calm,-,N/A,Fog,Light Freezing Fog,0,2012-11-14 06:58:00
1:07 AM,8.6,5.0,85,30.20,0.2,Calm,Calm,-,N/A,Fog,Light Freezing Fog,0,2012-11-14 07:07:00
1:08 AM,8.6,5.0,85,30.20,0.2,Calm,Calm,-,N/A,Fog,Light Freezing Fog,0,2012-11-14 07:08:00
1:12 AM,8.6,5.0,85,30.20,0.5,Calm,Calm,-,N/A,Fog,Light Freezing Fog,0,2012-11-14 07:12:00
1:21 AM,8.6,5.0,85,30.19,0.5,Calm,Calm,-,N/A,Fog,Light Freezing Fog,0,2012-11-14 07:21:00
1:23 AM,8.6,5.0,85,30.19,0.5,Calm,Calm,-,N/A,Fog,Light Freezing Fog,0,2012-11-14 07:23:00
1:24 AM,8.6,5.0,85,30.19,0.5,Calm,Calm,-,N/A,Fog,Light Freezing Fog,0,2012-11-14 07:24:00
1:25 AM,8.6,5.0,85,30.19,0.8,Calm,Calm,-,N/A,,Mist,0,2012-11-14 07:25:00
1:28 AM,8.6,5.0,85,30.19,1.0,Calm,Calm,-,N/A,,Mist,0,2012-11-14 07:28:00
1:33 AM,6.8,5.0,92,30.19,0.8,Calm,Calm,-,N/A,,Mist,0,2012-11-14 07:33:00
1:36 AM,6.8,5.0,92,30.19,0.8,Calm,Calm,-,N/A,,Mist,0,2012-11-14 07:36:00
1:39 AM,6.8,5.0,92,30.19,0.8,Calm,Calm,-,N/A,,Mist,0,2012-11-14 07:39:00
1:43 AM,6.8,3.2,85,30.19,1.0,Calm,Calm,-,N/A,,Mist,0,2012-11-14 07:43:00
1:46 AM,6.8,3.2,85,30.19,1.2,Calm,Calm,-,N/A,,Partly Cloudy,0,2012-11-14 07:46:00
1:54 AM,6.8,3.2,85,30.19,1.5,Calm,Calm,-,N/A,,Clear,0,2012-11-14 07:54:00
1:55 AM,6.8,3.7,87,30.19,1.5,Calm,Calm,-,N/A,,Clear,0,2012-11-14 07:55:00
1:59 AM,6.8,3.2,85,30.19,2.0,Calm,Calm,-,N/A,,Clear,0,2012-11-14 07:59:00
2:01 AM,6.8,3.2,85,30.19,3.0,Calm,Calm,-,N/A,,Clear,0,2012-11-14 08:01:00
2:55 AM,6.6,3.6,87,30.18,4.0,Calm,Calm,-,N/A,,Clear,0,2012-11-14 08:55:00
3:02 AM,6.8,3.2,85,30.18,4.0,Calm,Calm,-,N/A,,Clear,0,2012-11-14 09:02:00
3:13 AM,6.8,3.2,85,30.18,5.0,Calm,Calm,-,N/A,,Clear,0,2012-11-14 09:13:00
3:19 AM,6.8,3.2,85,30.18,2.5,SSE,3.5,-,N/A,,Clear,150,2012-11-14 09:19:00
3:21 AM,6.8,3.2,85,30.18,1.8,SSE,3.5,-,N/A,,Clear,150,2012-11-14 09:21:00
3:23 AM,6.8,3.2,85,30.18,1.2,SSE,3.5,-,N/A,,Clear,150,2012-11-14 09:23:00
3:25 AM,6.8,3.2,85,30.18,1.0,SSE,3.5,-,N/A,,Clear,150,2012-11-14 09:25:00
3:26 AM,6.8,3.2,85,30.18,0.8,Calm,Calm,-,N/A,,Clear,0,2012-11-14 09:26:00
3:28 AM,6.8,3.2,85,30.18,0.5,Calm,Calm,-,N/A,Fog,Light Freezing Fog,0,2012-11-14 09:28:00
3:32 AM,6.8,3.2,85,30.18,0.2,Calm,Calm,-,N/A,Fog,Light Freezing Fog,0,2012-11-14 09:32:00
3:35 AM,6.8,3.2,85,30.18,0.2,Calm,Calm,-,N/A,Fog,Light Freezing Fog,0,2012-11-14 09:35:00
3:42 AM,6.8,3.2,85,30.18,0.2,Calm,Calm,-,N/A,Fog,Light Freezing Fog,0,2012-11-14 09:42:00
3:48 AM,6.8,3.2,85,30.18,0.2,Calm,Calm,-,N/A,Fog,Light Freezing Fog,0,2012-11-14 09:48:00
3:49 AM,6.8,3.2,85,30.17,0.2,Calm,Calm,-,N/A,Fog,Light Freezing Fog,0,2012-11-14 09:49:00
3:52 AM,6.8,3.2,85,30.17,0.5,Calm,Calm,-,N/A,Fog,Light Freezing Fog,0,2012-11-14 09:52:00
3:55 AM,7.0,3.9,87,30.17,0.5,Calm,Calm,-,N/A,Fog,Light Freezing Fog,0,2012-11-14 09:55:00
3:56 AM,6.8,3.2,85,30.17,0.5,Calm,Calm,-,N/A,Fog,Light Freezing Fog,0,2012-11-14 09:56:00
3:57 AM,6.8,3.2,85,30.17,0.8,Calm,Calm,-,N/A,,Mist,0,2012-11-14 09:57:00
4:00 AM,6.8,3.2,85,30.17,1.0,Calm,Calm,-,N/A,,Mist,0,2012-11-14 10:00:00
4:02 AM,6.8,3.2,85,30.17,1.2,Calm,Calm,-,N/A,,Partly Cloudy,0,2012-11-14 10:02:00
4:04 AM,6.8,3.2,85,30.17,1.5,Calm,Calm,-,N/A,,Partly Cloudy,0,2012-11-14 10:04:00
4:07 AM,6.8,3.2,85,30.17,2.0,Calm,Calm,-,N/A,,Partly Cloudy,0,2012-11-14 10:07:00
4:12 AM,6.8,5.0,92,30.17,1.8,Calm,Calm,-,N/A,,Clear,0,2012-11-14 10:12:00
4:14 AM,6.8,5.0,92,30.17,1.2,Calm,Calm,-,N/A,,Clear,0,2012-11-14 10:14:00
4:19 AM,8.6,5.0,85,30.17,0.8,Calm,Calm,-,N/A,,Clear,0,2012-11-14 10:19:00
4:23 AM,8.6,5.0,85,30.17,1.0,Calm,Calm,-,N/A,,Clear,0,2012-11-14 10:23:00
4:29 AM,8.6,5.0,85,30.17,1.0,Calm,Calm,-,N/A,,Clear,0,2012-11-14 10:29:00
4:30 AM,8.6,5.0,85,30.17,1.0,Calm,Calm,-,N/A,,Clear,0,2012-11-14 10:30:00
4:31 AM,8.6,5.0,85,30.17,1.2,Calm,Calm,-,N/A,,Clear,0,2012-11-14 10:31:00
4:34 AM,8.6,5.0,85,30.17,1.5,Calm,Calm,-,N/A,,Clear,0,2012-11-14 10:34:00
4:38 AM,8.6,5.0,85,30.17,2.0,Calm,Calm,-,N/A,,Clear,0,2012-11-14 10:38:00
4:55 AM,7.5,4.5,87,30.16,2.5,Calm,Calm,-,N/A,,Clear,0,2012-11-14 10:55:00
5:05 AM,6.8,3.2,85,30.17,1.8,Calm,Calm,-,N/A,,Clear,0,2012-11-14 11:05:00
5:11 AM,6.8,5.0,92,30.16,2.0,Calm,Calm,-,N/A,,Clear,0,2012-11-14 11:11:00
5:23 AM,6.8,5.0,92,30.15,1.5,South,4.6,-,N/A,,Clear,190,2012-11-14 11:23:00
5:24 AM,6.8,5.0,92,30.16,1.2,South,5.8,-,N/A,,Clear,190,2012-11-14 11:24:00
5:25 AM,6.8,5.0,92,30.15,1.0,South,5.8,-,N/A,,Clear,190,2012-11-14 11:25:00
5:26 AM,6.8,5.0,92,30.16,0.8,South,4.6,-,N/A,,Clear,190,2012-11-14 11:26:00
5:28 AM,6.8,5.0,92,30.16,0.5,South,4.6,-,N/A,Fog,Light Freezing Fog,190,2012-11-14 11:28:00
5:31 AM,6.8,5.0,92,30.16,0.5,South,4.6,-,N/A,Fog,Light Freezing Fog,190,2012-11-14 11:31:00
5:32 AM,6.8,5.0,92,30.16,0.2,South,5.8,-,N/A,Fog,Light Freezing Fog,190,2012-11-14 11:32:00
5:34 AM,6.8,5.0,92,30.16,0.2,South,4.6,-,N/A,Fog,Light Freezing Fog,180,2012-11-14 11:34:00
5:35 AM,6.8,3.2,85,30.16,0.2,South,4.6,-,N/A,Fog,Light Freezing Fog,180,2012-11-14 11:35:00
5:36 AM,6.8,3.2,85,30.16,0.2,South,4.6,-,N/A,Fog,Light Freezing Fog,180,2012-11-14 11:36:00
5:37 AM,6.8,3.2,85,30.16,0.2,South,4.6,-,N/A,Fog,Light Freezing Fog,180,2012-11-14 11:37:00
5:38 AM,6.8,3.2,85,30.16,0.2,South,3.5,-,N/A,Fog,Light Freezing Fog,180,2012-11-14 11:38:00
5:39 AM,6.8,3.2,85,30.16,0.5,South,3.5,-,N/A,Fog,Light Freezing Fog,180,2012-11-14 11:39:00
5:43 AM,6.8,3.2,85,30.16,0.8,South,5.8,-,N/A,,Clear,180,2012-11-14 11:43:00
5:44 AM,6.8,3.2,85,30.16,1.0,South,5.8,-,N/A,,Clear,180,2012-11-14 11:44:00
5:45 AM,6.8,3.2,85,30.15,1.2,South,5.8,-,N/A,,Clear,180,2012-11-14 11:45:00
5:46 AM,6.8,3.2,85,30.15,1.8,South,5.8,-,N/A,,Clear,180,2012-11-14 11:46:00
5:47 AM,6.8,3.2,85,30.15,2.0,South,5.8,-,N/A,,Clear,180,2012-11-14 11:47:00
5:48 AM,6.8,5.0,92,30.15,1.5,South,5.8,-,N/A,,Clear,180,2012-11-14 11:48:00
5:49 AM,6.8,5.0,92,30.15,1.0,South,4.6,-,N/A,,Clear,170,2012-11-14 11:49:00
5:50 AM,6.8,5.0,92,30.15,0.8,South,4.6,-,N/A,,Clear,170,2012-11-14 11:50:00
5:52 AM,6.8,5.0,92,30.15,0.5,South,4.6,-,N/A,Fog,Light Freezing Fog,180,2012-11-14 11:52:00
5:55 AM,7.7,4.8,88,30.15,0.5,South,4.6,-,N/A,Fog,Light Freezing Fog,180,2012-11-14 11:55:00
5:59 AM,8.6,5.0,85,30.15,0.8,South,3.5,-,N/A,,Clear,180,2012-11-14 11:59:00
6:01 AM,8.6,5.0,85,30.15,1.0,South,3.5,-,N/A,,Clear,190,2012-11-14 12:01:00
6:02 AM,8.6,5.0,85,30.15,1.5,South,3.5,-,N/A,,Clear,190,2012-11-14 12:02:00
6:03 AM,6.8,5.0,92,30.15,2.0,South,3.5,-,N/A,,Clear,190,2012-11-14 12:03:00
6:06 AM,6.8,3.2,85,30.15,3.0,SSW,4.6,-,N/A,,Clear,200,2012-11-14 12:06:00
6:12 AM,6.8,3.2,85,30.15,4.0,South,5.8,-,N/A,,Clear,190,2012-11-14 12:12:00
6:55 AM,7.7,5.0,89,30.14,5.0,Calm,Calm,-,N/A,,Clear,0,2012-11-14 12:55:00
6:58 AM,8.6,5.0,85,30.14,5.0,Calm,Calm,-,N/A,,Clear,0,2012-11-14 12:58:00
7:06 AM,8.6,5.0,85,30.14,5.0,Calm,Calm,-,N/A,,Clear,0,2012-11-14 13:06:00
7:17 AM,8.6,5.0,85,30.14,5.0,Calm,Calm,-,N/A,,Clear,0,2012-11-14 13:17:00
7:27 AM,8.6,5.0,85,30.14,4.0,Calm,Calm,-,N/A,,Clear,0,2012-11-14 13:27:00
7:28 AM,8.6,6.8,92,30.14,4.0,Calm,Calm,-,N/A,,Clear,0,2012-11-14 13:28:00
7:39 AM,10.4,6.8,85,30.13,2.5,SSE,3.5,-,N/A,,Clear,160,2012-11-14 13:39:00
7:47 AM,8.6,6.8,92,30.14,3.0,SSE,3.5,-,N/A,Snow,Light Snow,160,2012-11-14 13:47:00
7:55 AM,10.8,8.6,91,30.14,4.0,Calm,Calm,-,0.00,,Clear,0,2012-11-14 13:55:00
8:55 AM,13.5,11.5,92,30.13,7.0,South,3.5,-,N/A,,Clear,180,2012-11-14 14:55:00
9:55 AM,16.5,14.5,92,30.12,10.0,SSE,3.5,-,N/A,,Clear,160,2012-11-14 15:55:00
10:55 AM,26.1,25.5,98,30.10,10.0,SSW,5.8,-,N/A,,Clear,200,2012-11-14 16:55:00
11:55 AM,33.8,29.5,84,30.06,10.0,SW,11.5,-,0.01,,Clear,220,2012-11-14 17:55:00
12:55 PM,35.2,29.1,78,30.05,10.0,SW,11.5,-,N/A,,Overcast,220,2012-11-14 18:55:00
1:55 PM,37.4,29.1,72,30.04,10.0,WSW,8.1,-,N/A,,Mostly Cloudy,240,2012-11-14 19:55:00
2:55 PM,37.2,29.1,73,30.03,10.0,Calm,Calm,-,N/A,,Mostly Cloudy,0,2012-11-14 20:55:00
3:55 PM,36.9,29.1,74,30.02,10.0,Calm,Calm,-,N/A,,Clear,0,2012-11-14 21:55:00
4:55 PM,35.2,28.4,76,30.02,10.0,WSW,12.7,-,N/A,,Clear,240,2012-11-14 22:55:00
5:55 PM,34.9,28.0,76,30.02,10.0,WSW,13.8,-,N/A,,Clear,240,2012-11-14 23:55:00
6:55 PM,35.1,28.2,76,30.03,10.0,West,12.7,-,N/A,,Clear,260,2012-11-15 00:55:00
7:55 PM,32.5,26.8,79,30.05,10.0,West,11.5,-,N/A,,Clear,260,2012-11-15 01:55:00
8:55 PM,31.6,25.9,79,30.06,10.0,West,13.8,-,N/A,,Clear,260,2012-11-15 02:55:00
9:55 PM,30.4,25.0,80,30.09,10.0,West,13.8,-,N/A,,Clear,270,2012-11-15 03:55:00
10:55 PM,31.3,24.8,77,30.10,10.0,WNW,20.7,-,N/A,,Clear,290,2012-11-15 04:55:00
11:55 PM,28.8,23.5,81,30.13,10.0,WNW,23.0,-,N/A,,Clear,300,2012-11-15 05:55:00